Weather History for Ketchikan, AK

Change the Weather History Date:

Sunday, January 1, 2012

  Actual Average Record
Temperature  
Mean Temperature 40 °F -  
Max Temperature 46 °F 38 °F 54 °F (1962)
Min Temperature 35 °F 27 °F 2 °F (1950)
Degree Days  
Heating Degree Days 24    
Moisture  
Dew Point 35 °F    
Average Humidity 83    
Maximum Humidity 93    
Minimum Humidity 67    
Precipitation  
Precipitation 2.32 in - - ()
Sea Level Pressure  
Sea Level Pressure 29.61 in    
Wind  
Wind Speed 18 mph (SE)    
Max Wind Speed 28 mph    
Max Gust Speed 59 mph    
Visibility 7 miles    
Events Rain , Snow    
Averages and records for this station are not official NWS values.
T = Trace of Precipitation, MM = Missing Value Source: NWS Daily Summary

Daily Weather History Graph

Daily Weather History Graph

Search for Another Location

Airport:

Trip Planner

Search our weather history database for the weather conditions in past years. The results will help you decide how hot, cold, wet, or windy it might be!

Date:

Astronomy

Jan. 01, 2012 Rise Set
Actual Time 8:13 AM AKST 3:26 PM AKST
Civil Twilight 7:28 AM AKST 4:12 PM AKST
Nautical Twilight 6:40 AM AKST 5:00 PM AKST
Astronomical Twilight 5:55 AM AKST 5:45 PM AKST
Moon 10:56 AM AKST 12:33 AM AKST
Length of Visible Light 8h 44m
Length of Day
7h 12m
First Quarter, 56% of the Moon is Illuminated
Jan 1
First Quarter
Jan 8
Full
Jan 16
Last Quarter
Jan 22
New
Jan 30
First Quarter

Hourly Weather History & Observations

Time (AKST) Temp. Windchill Dew Point Humidity Pressure Visibility Wind Dir Wind Speed Gust Speed Precip Events Conditions
12:04 AM 35.6 °F 26.2 °F 28.4 °F 75% 29.91 in 7.0 mi SSE 15.0 mph 25.3 mph 0.00 in Snow Light Snow
12:53 AM 35.1 °F 25.5 °F 30.0 °F 82% 29.90 in 5.0 mi SSE 15.0 mph 24.2 mph 0.00 in Snow Light Snow
1:37 AM 35.6 °F 27.5 °F 30.2 °F 81% 29.89 in 9.0 mi SSE 11.5 mph 24.2 mph 0.01 in Snow Light Snow
1:53 AM 36.0 °F 25.6 °F 30.9 °F 82% 29.88 in 10.0 mi SSE 18.4 mph 27.6 mph 0.01 in   Overcast
2:11 AM 35.6 °F 25.5 °F 30.2 °F 81% 29.87 in 10.0 mi SE 17.3 mph 26.5 mph 0.00 in Rain Light Rain
2:37 AM 35.6 °F 25.2 °F 30.2 °F 81% 29.86 in 10.0 mi SSE 18.4 mph 28.8 mph 0.00 in Rain Light Rain
2:44 AM 35.6 °F 24.8 °F 30.2 °F 81% 29.85 in 10.0 mi SSE 19.6 mph 31.1 mph 0.00 in   Overcast
3:12 AM 37.4 °F 28.2 °F 30.2 °F 75% 29.85 in 10.0 mi SSE 16.1 mph 27.6 mph N/A   Overcast
3:53 AM 37.0 °F 27.0 °F 30.9 °F 79% 29.84 in 10.0 mi SSE 18.4 mph 31.1 mph N/A   Overcast
4:53 AM 37.9 °F 28.9 °F 30.9 °F 76% 29.81 in 10.0 mi SSE 16.1 mph 26.5 mph N/A   Overcast
5:53 AM 39.0 °F 28.5 °F 30.0 °F 70% 29.78 in 10.0 mi SE 23.0 mph 32.2 mph N/A   Overcast
6:06 AM 39.2 °F 28.3 °F 30.2 °F 70% 29.76 in 10.0 mi SE 25.3 mph 36.8 mph N/A   Overcast
6:53 AM 39.0 °F 29.9 °F 28.9 °F 67% 29.75 in 10.0 mi SE 17.3 mph 25.3 mph N/A   Overcast
7:53 AM 39.0 °F 29.3 °F 30.0 °F 70% 29.70 in 10.0 mi SE 19.6 mph 26.5 mph 0.00 in Rain Light Rain
8:53 AM 39.9 °F 31.4 °F 30.9 °F 70% 29.65 in 10.0 mi SSE 16.1 mph 26.5 mph 0.00 in   Overcast
9:53 AM 37.9 °F 28.5 °F 33.1 °F 83% 29.58 in 10.0 mi SSE 17.3 mph 27.6 mph 0.01 in Rain Light Rain
10:53 AM 37.0 °F 28.1 °F 33.1 °F 86% 29.54 in 5.0 mi SSE 15.0 mph 26.5 mph 0.09 in Rain Light Rain
11:53 AM 37.0 °F 28.1 °F 34.0 °F 89% 29.48 in 6.0 mi SSE 15.0 mph 24.2 mph 0.06 in Rain Light Rain
12:53 PM 37.0 °F 26.4 °F 34.0 °F 89% 29.44 in 3.0 mi SSE 20.7 mph 29.9 mph 0.16 in Rain Rain
1:53 PM 37.9 °F 27.3 °F 35.1 °F 89% 29.42 in 3.0 mi SE 21.9 mph 41.4 mph 0.21 in Rain Rain
2:53 PM 39.0 °F 28.0 °F 36.0 °F 89% 29.39 in 3.0 mi SE 25.3 mph 49.5 mph 0.26 in Rain Rain
3:53 PM 42.1 °F 32.6 °F 39.0 °F 89% 29.37 in 4.0 mi SSE 23.0 mph 48.3 mph 0.28 in Rain Rain
4:53 PM 45.0 °F 35.6 °F 42.1 °F 90% 29.36 in 5.0 mi SE 27.6 mph 54.1 mph 0.18 in Rain Rain
5:53 PM 45.0 °F 36.4 °F 43.0 °F 93% 29.36 in 4.0 mi SSE 23.0 mph 58.7 mph 0.19 in Rain Rain
6:53 PM 45.0 °F 36.4 °F - N/A% 29.37 in 4.0 mi SE 23.0 mph 54.1 mph 0.19 in Rain Rain
7:53 PM 45.0 °F 37.6 °F - N/A% 29.38 in 3.0 mi SSE 17.3 mph 49.5 mph 0.31 in Rain Heavy Rain
8:51 PM 44.6 °F 37.4 °F 42.8 °F 93% 29.40 in 9.0 mi SE 16.1 mph 36.8 mph 0.07 in Rain Light Rain
8:53 PM 45.0 °F 37.9 °F 43.0 °F 93% 29.40 in 10.0 mi SE 16.1 mph 36.8 mph 0.07 in Rain Light Rain
9:53 PM 46.0 °F 38.5 °F 43.0 °F 89% 29.41 in 4.0 mi SE 19.6 mph 33.4 mph 0.07 in Rain Rain
10:53 PM 46.0 °F 38.5 °F 43.0 °F 89% 29.44 in 4.0 mi SE 19.6 mph 31.1 mph 0.12 in Rain Rain
11:10 PM 46.4 °F 39.8 °F 42.8 °F 87% 29.44 in 4.0 mi SE 16.1 mph 23.0 mph N/A Rain Rain
11:16 PM 46.4 °F 40.1 °F 42.8 °F 87% 29.44 in 5.0 mi SE 15.0 mph 20.7 mph 0.06 in Rain Rain
11:53 PM 46.0 °F 39.6 °F 41.0 °F 83% 29.46 in 9.0 mi SE 15.0 mph 26.5 mph 0.11 in Rain Light Rain